Location: Maccacari
(45.1333°N, 11.1333°E)
Time: 08:30:12
(UTC+00:00)

OBJECT-B - Pass Details

Date: 18 September 2020
Orbit: 421 x 433 km, 97.0° (Epoch: 09 October)

Event Time Altitude Azimuth Distance (km) Brightness Sun altitude
Exits shadow 19:01:25 37° 47° (NE) 675 1.5 -18.3°
Drops below altitude 10° 19:03:58 10° 2° (N) 1,520 3.8 -18.7°
Sets 19:06:03 0° 355° (N) 2,393 5.0 -19.0°
